Location: Unspecified
(0.0000°N, 0.0000°E)
Time: 19:54:12
(UTC+00:00)

Transit 2A - Pass Details

Date: 26 April 2024
Orbit: 594 x 958 km, 66.7° (Epoch: 22 May)

Event Time Altitude Azimuth Distance (km) Brightness Sun altitude
Rises 04:31:38 0° 239° (WSW) 2,854 - -20.9°
Reaches altitude 10° 04:36:13 10° 284° (WNW) 1,920 - -19.8°
Maximum altitude 04:36:40 10° 290° (WNW) 1,910 - -19.7°
Drops below altitude 10° 04:37:07 10° 296° (WNW) 1,918 - -19.6°
Exits shadow 04:39:45 - 327° (NNW) 2,302 8.3 -18.9°
Sets 04:41:41 0° 342° (NNW) 2,832 8.9 -18.5°
